Content
SEND FEEDBACK

Daily
Averages
Monthly
Summary
United States of America

HAZELWOOD, MISSOURI


Home > North America > United States > Missouri
Elevation: 570 feet     Latitude: 38 45N     Longitude: 090 22W

WEATHER
 
SELECT A DAY
Number of Records: 200,489;   Date Range: 1/1/95 - 11/22/14
 
SHARE

PRINT THIS DATA

[ ← Previous Day ]
WEATHER ALMANAC - FEBRUARY 22, 2013
[ Next Day → ]
[ °C ]   °F
Weather ElementAverageHighLow
Temperature30.7 °F36 °F (8:54 am)17.1 °F (11:54 pm)
Dewpoint24.4 °F30.9 °F (4:54 am)12 °F (11:54 pm)
Humidity78 %93 % (12:14 am)59 % (5:54 pm)
Barometer29.95 in30.12 in (9:54 pm)29.81 in (2:30 am)
Wind Speed7.5 mph18.4 mph (9:54 am)
Wind Gust25.3 mph (9:51 am)
Weather ElementAverage
Visibility9.4 mi
Wind DirectionS (178.7 °)

Weather ElementTotal
Precipitation---
Heating Degree Days38.5 (Base 65)
Averaged from 30 records on February 22, 2013
WEATHER CONDITIONS BREAKOUT
WIND DIRECTION BREAKOUT
WEATHER BY HOUR - FEBRUARY 22, 2013
[ °C ]   °F
Local TimeTemperatureDewpointHumidityBarometerVisibilityWind DirectionWind SpeedGust SpeedPrecipitationEventsConditions
12:14 AM32.0 °F30.2 °F93 %29.82 in2.0 miCalm0.00 inSnowLight Snow
12:54 AM32.0 °F30.0 °F92 %29.85 in5.0 miCalm0.00 inOvercast
1:54 AM32.0 °F28.9 °F88 %29.84 in9.0 miCalm0.00 inOvercast
2:30 AM32.0 °F30.2 °F93 %29.81 in8.0 miCalmOvercast
2:54 AM32.0 °F30.0 °F92 %29.83 in9.0 miCalmOvercast
3:54 AM34.0 °F30.0 °F85 %29.83 in10.0 miSSW (210°)8.1 mphOvercast
4:54 AM35.1 °F30.9 °F85 %29.84 in10.0 miSW (220°)6.9 mphOvercast
5:52 AM35.6 °F30.2 °F81 %29.83 in10.0 miSW (230°)5.8 mphOvercast
5:54 AM35.1 °F30.0 °F82 %29.85 in10.0 miSW (230°)5.8 mphOvercast
6:50 AM35.6 °F30.2 °F81 %29.86 in10.0 miSouth (190°)6.9 mph0.00 inOvercast
6:54 AM35.1 °F30.9 °F85 %29.89 in10.0 miSouth (190°)8.1 mph0.00 inOvercast
7:54 AM35.1 °F30.0 °F82 %29.91 in10.0 miSSW (210°)6.9 mphOvercast
8:54 AM36.0 °F28.9 °F76 %29.93 in10.0 miWSW (240°)9.2 mphOvercast
9:51 AM35.6 °F26.6 °F70 %29.93 in10.0 miWSW (250°)17.3 mph25.3 mphOvercast
9:54 AM35.1 °F27.0 °F72 %29.95 in10.0 miWSW (250°)18.4 mph25.3 mphOvercast
10:54 AM33.1 °F26.1 °F75 %29.99 in10.0 miWSW (250°)18.4 mph24.2 mphOvercast
11:54 AM32.0 °F26.1 °F79 %30.00 in10.0 miWest (270°)13.8 mphOvercast
12:54 PM32.0 °F25.0 °F75 %30.00 in10.0 miWest (260°)13.8 mphOvercast
1:54 PM32.0 °F23.0 °F69 %30.01 in10.0 miWest (260°)12.7 mphOvercast
2:05 PM32.0 °F23.0 °F69 %29.98 in10.0 miWSW (250°)13.8 mphOvercast
2:54 PM32.0 °F21.9 °F66 %30.02 in10.0 miWest (260°)12.7 mphOvercast
3:54 PM33.1 °F21.0 °F61 %30.02 in10.0 miWest (270°)12.7 mphMostly Cloudy
4:54 PM32.0 °F19.9 °F61 %30.02 in10.0 miWest (270°)10.4 mphPartly Cloudy
5:54 PM30.9 °F18.0 °F59 %30.04 in10.0 miWest (280°)11.5 mphClear
6:54 PM26.1 °F17.1 °F69 %30.06 in10.0 miWest (270°)4.6 mphClear
7:54 PM21.9 °F14.0 °F72 %30.07 in10.0 miWest (280°)4.6 mphClear
8:54 PM19.9 °F14.0 °F78 %30.09 in10.0 miCalmClear
9:54 PM18.0 °F14.0 °F84 %30.12 in10.0 miCalmClear
10:54 PM18.0 °F14.0 °F84 %30.12 in10.0 miSW (220°)3.5 mphClear
11:54 PM17.1 °F12.0 °F81 %30.10 in10.0 miCalmClear
Hourly data recorded from KSUS, located miles away from Hazelwood, Missouri







STORIES FROM OUR PARTNERS